Date String (YYYY-MM-DD hh:mm:ss) UTC,Instrument flags,absolute air pressure of the measurement (hPa),sample flow rate (lpm),inlet stack bypass flow (lpm),air temperature of the measurement (°C),ambient temperature measured by the external sensor (°C),aerosol sample conditioner tube jacket temperature (°C),OPC LED temperature (°C),internal box temperature (°C),relative humidity of the measurement (%),span deviation,mass concentration of particles derived from Lorenz-Mie calculation of OPC scattering (μg/m³),mass concentration of particles derived from Lorenz-Mie calculation of OPC scattering (μg/m³),mass concentration of particles derived from Lorenz-Mie calculation of OPC scattering (μg/m³)
DateTimeUTC,F1_M11,P_M11,Q1_M11,Q2_M11,T1_M11,T2_M11,T3_M11,T4_M11,T5_M11,U1_M11,ZSPAN_M11,X0_M11,X2_M11,X1_M11
2023-07-28 19:00:00,SystemResetWarning,0834.0,4.99,000.00,028.7,026.4,000.0,036.9,030.3,31.8,0000.0,0009.77,0004.42,0003.65
2023-07-28 19:01:00,SystemResetWarning,0834.0,5.00,000.00,028.6,025.1,000.0,036.8,030.0,32.1,0000.0,0009.68,0004.42,0003.66
2023-07-28 19:02:00,SystemResetWarning,0834.0,5.01,000.00,028.6,025.0,000.0,036.7,030.0,31.4,0000.0,0009.69,0004.41,0003.67
2023-07-28 19:03:00,SystemResetWarning,0834.0,5.01,000.00,028.5,025.4,000.0,036.8,029.9,32.1,0000.0,0009.66,0004.43,0003.67
2023-07-28 19:04:00,SystemResetWarning,0834.0,4.99,000.00,028.5,025.8,000.0,036.8,029.9,33.4,0000.0,0009.46,0004.42,0003.67
2023-07-28 19:05:00,SystemResetWarning,0834.0,5.00,000.00,028.5,026.2,000.0,036.8,030.1,33.1,0000.0,0009.23,0004.39,0003.68
2023-07-28 19:06:00,SystemResetWarning,0834.0,5.00,000.00,028.5,026.6,000.0,036.9,030.2,32.0,0000.0,0009.14,0004.38,0003.68
2023-07-28 19:07:00,SystemResetWarning,0834.0,4.99,000.00,028.6,027.0,000.0,036.9,030.3,32.7,0000.0,0008.83,0004.40,0003.69
2023-07-28 19:08:00,SystemResetWarning,0834.0,4.98,000.00,028.6,027.0,000.0,036.9,030.3,33.1,0000.0,0008.78,0004.42,0003.70
2023-07-28 19:09:00,SystemResetWarning,0834.0,5.01,000.00,028.6,025.8,000.0,036.8,030.2,33.2,0000.0,0009.16,0004.43,0003.70
2023-07-28 19:10:00,SystemResetWarning,0834.0,5.01,000.00,028.6,025.0,000.0,036.7,030.0,33.8,0000.0,0009.13,0004.42,0003.72
2023-07-28 19:11:00,SystemResetWarning,0834.1,5.01,000.00,028.5,025.2,000.0,036.7,029.9,34.0,0000.0,0009.27,0004.46,0003.72
2023-07-28 19:12:00,SystemResetWarning,0834.1,4.99,000.00,028.5,025.6,000.0,036.8,029.9,34.1,0000.0,0009.33,0004.47,0003.72
2023-07-28 19:13:00,SystemResetWarning,0834.1,4.99,000.00,028.5,026.0,000.0,036.8,030.0,35.1,0000.0,0008.97,0004.47,0003.74
2023-07-28 19:14:00,SystemResetWarning,0834.2,5.01,000.00,028.6,026.5,000.0,036.8,030.2,33.6,0000.0,0008.64,0004.51,0003.75
2023-07-28 19:15:00,SystemResetWarning,0834.3,4.98,000.00,028.7,026.8,000.0,036.8,030.3,33.9,0000.0,0008.66,0004.52,0003.76
2023-07-28 19:16:00,SystemResetWarning,0834.5,4.99,000.00,028.8,026.1,000.0,036.8,030.2,34.8,0000.0,0008.90,0004.52,0003.77
2023-07-28 19:17:00,SystemResetWarning,0834.3,5.03,000.00,028.8,024.9,000.0,036.7,030.1,36.6,0000.0,0009.21,0004.56,0003.77
2023-07-28 19:18:00,SystemResetWarning,0834.5,5.00,000.00,029.0,024.8,000.0,036.7,030.1,37.6,0000.0,0009.60,0004.56,0003.78
2023-07-28 19:19:00,SystemResetWarning,0834.4,4.99,000.00,029.3,025.1,000.0,036.8,030.2,37.5,0000.0,0010.04,0004.61,0003.80
2023-07-28 19:20:00,SystemResetWarning,0834.3,5.00,000.00,029.7,025.6,000.0,036.9,030.3,36.0,0000.0,0009.87,0004.67,0003.81
2023-07-28 19:21:00,SystemResetWarning,0834.3,5.01,000.00,030.1,026.0,000.0,037.0,030.5,35.9,0000.0,0010.10,0004.72,0003.84
2023-07-28 19:22:00,SystemResetWarning,0834.4,5.00,000.00,030.6,026.5,000.0,037.1,030.7,34.2,0000.0,0010.51,0004.75,0003.86
2023-07-28 19:23:00,SystemResetWarning,0834.4,4.99,000.00,030.9,026.8,000.0,037.3,030.8,33.2,0000.0,0011.83,0004.79,0003.89
2023-07-28 19:24:00,SystemResetWarning,0834.4,5.00,000.00,031.1,026.1,000.0,037.4,030.8,32.7,0000.0,0013.64,0004.82,0003.91
2023-07-28 19:25:00,SystemResetWarning,0834.4,5.01,000.00,031.2,024.9,000.0,037.4,030.6,33.0,0000.0,0014.33,0004.83,0003.94
2023-07-28 19:26:00,SystemResetWarning,0834.5,5.01,000.00,031.3,024.7,000.0,037.5,030.5,33.0,0000.0,0015.42,0004.91,0003.98
2023-07-28 19:27:00,SystemResetWarning,0834.5,4.99,000.00,031.1,025.1,000.0,037.7,030.3,32.5,0000.0,0016.37,0005.03,0004.03
2023-07-28 19:28:00,SystemResetWarning,0834.9,5.00,000.00,031.1,025.5,000.0,037.9,030.3,32.7,0000.0,0016.51,0005.11,0004.07
2023-07-28 19:29:00,SystemResetWarning,0835.1,5.00,000.00,031.1,026.0,000.0,038.0,030.5,32.6,0000.0,0016.53,0005.20,0004.11
2023-07-28 19:30:00,SystemResetWarning,0834.8,5.00,000.00,031.1,026.4,000.0,038.2,030.6,31.9,0000.0,0017.00,0005.25,0004.15
2023-07-28 19:31:00,SystemResetWarning,0834.7,5.00,000.00,031.1,026.8,000.0,038.2,030.7,32.3,0000.0,0018.59,0005.35,0004.19
2023-07-28 19:32:00,SystemResetWarning,0834.7,4.98,000.00,031.1,026.1,000.0,038.2,030.7,31.6,0000.0,0019.28,0005.44,0004.21
2023-07-28 19:33:00,SystemResetWarning,0835.1,5.00,000.00,031.0,024.8,000.0,038.2,030.5,32.3,0000.0,0020.27,0005.49,0004.23
2023-07-28 19:34:00,SystemResetWarning,0835.2,5.00,000.00,031.0,024.6,000.0,038.1,030.4,32.3,0000.0,0021.30,0005.55,0004.24
2023-07-28 19:35:00,SystemResetWarning,0834.9,5.01,000.00,030.8,024.9,000.0,038.2,030.3,32.1,0000.0,0020.32,0005.70,0004.26
2023-07-28 19:36:00,SystemResetWarning,0834.9,5.00,000.00,030.7,025.4,000.0,038.3,030.3,31.7,0000.0,0019.91,0005.82,0004.28
2023-07-28 19:37:00,SystemResetWarning,0834.9,5.00,000.00,030.6,025.9,000.0,038.3,030.4,31.5,0000.0,0021.15,0005.90,0004.30
2023-07-28 19:38:00,SystemResetWarning,0834.8,5.01,000.00,030.6,026.3,000.0,038.3,030.5,31.1,0000.0,0021.03,0005.88,0004.30
2023-07-28 19:39:00,SystemResetWarning,0834.7,5.00,000.00,030.6,026.8,000.0,038.4,030.7,30.5,0000.0,0022.01,0005.96,0004.31
2023-07-28 19:40:00,SystemResetWarning,0834.7,5.00,000.00,030.6,026.8,000.0,038.3,030.7,31.0,0000.0,0022.66,0006.01,0004.32
2023-07-28 19:41:00,SystemResetWarning,0834.8,4.99,000.00,030.6,025.5,000.0,038.2,030.6,30.0,0000.0,0022.64,0006.07,0004.32
2023-07-28 19:42:00,SystemResetWarning,0834.8,5.01,000.00,030.5,024.6,000.0,038.1,030.4,30.6,0000.0,0021.52,0006.09,0004.33
2023-07-28 19:43:00,SystemResetWarning,0835.1,5.02,000.00,030.4,024.7,000.0,038.1,030.2,30.5,0000.0,0021.24,0006.09,0004.35
2023-07-28 19:44:00,SystemResetWarning,0835.0,5.00,000.00,030.2,025.1,000.0,038.1,030.2,31.2,0000.0,0020.84,0006.17,0004.37
2023-07-28 19:45:00,SystemResetWarning,0834.9,5.00,000.00,030.2,025.6,000.0,038.1,030.3,31.9,0000.0,0020.27,0006.21,0004.39
2023-07-28 19:46:00,SystemResetWarning,0834.9,5.00,000.00,030.1,026.1,000.0,038.1,030.4,31.1,0000.0,0020.14,0006.17,0004.41
2023-07-28 19:47:00,SystemResetWarning,0835.0,5.00,000.00,030.1,026.5,000.0,038.2,030.5,31.9,0000.0,0020.00,0006.14,0004.41
2023-07-28 19:48:00,SystemResetWarning,0835.0,5.00,000.00,030.1,026.9,000.0,038.2,030.6,32.4,0000.0,0018.70,0006.11,0004.41
2023-07-28 19:49:00,SystemResetWarning,0835.1,5.00,000.00,030.1,026.9,000.0,038.1,030.7,32.0,0000.0,0019.09,0006.18,0004.42
2023-07-28 19:50:00,SystemResetWarning,0835.0,4.99,000.00,030.1,025.7,000.0,038.0,030.6,30.9,0000.0,0018.65,0006.16,0004.44
2023-07-28 19:51:00,SystemResetWarning,0835.0,5.01,000.00,030.0,024.7,000.0,037.9,030.4,30.7,0000.0,0018.24,0006.13,0004.45
2023-07-28 19:52:00,SystemResetWarning,0835.0,5.01,000.00,029.9,024.8,000.0,037.8,030.2,31.3,0000.0,0018.30,0006.13,0004.47
2023-07-28 19:53:00,SystemResetWarning,0835.0,5.00,000.00,029.8,025.2,000.0,037.9,030.1,30.1,0000.0,0018.39,0006.11,0004.47
2023-07-28 19:54:00,SystemResetWarning,0835.0,4.99,000.00,029.7,025.6,000.0,037.9,030.2,30.8,0000.0,0018.17,0006.07,0004.46
2023-07-28 19:55:00,SystemResetWarning,0835.0,5.00,000.00,029.7,026.1,000.0,037.9,030.3,29.6,0000.0,0017.76,0006.05,0004.48
2023-07-28 19:56:00,SystemResetWarning,0835.0,5.00,000.00,029.7,026.5,000.0,037.9,030.4,25.8,0000.0,0018.32,0006.06,0004.49
2023-07-28 19:57:00,SystemResetWarning,0835.0,5.00,000.00,029.7,026.9,000.0,037.9,030.5,27.8,0000.0,0017.30,0006.06,0004.49
2023-07-28 19:58:00,SystemResetWarning,0835.0,5.00,000.00,029.7,027.0,000.0,037.9,030.6,29.6,0000.0,0017.61,0006.02,0004.50
2023-07-28 19:59:00,SystemResetWarning,0835.0,4.98,000.00,029.7,025.9,000.0,037.7,030.5,28.4,0000.0,0017.83,0006.01,0004.49
